This is the latest recevied weather packets stored in our database for station/object HB9SZU-6. If no packets are shown the sender has not sent any weather packets the latest 10 day(s).
| Time | Temp. | Humidity | Pressure | Rain* | Wind** | Luminosity | Snow |
|---|---|---|---|---|---|---|---|
| 1777978090 | 13.89° C | 75% | 1019.4 hPa | 0 mm | - | - | - |
| 1777977190 | 13.89° C | 74% | 1019.6 hPa | 0 mm | - | - | - |
| 1777976291 | 13.33° C | 75% | 1019.5 hPa | 0 mm | - | - | - |
| 1777975391 | 13.33° C | 74% | 1019.5 hPa | 0 mm | - | - | - |
| 1777974491 | 13.33° C | 74% | 1019.3 hPa | 0 mm | - | - | - |
| 1777973591 | 12.78° C | 74% | 1019.4 hPa | 0 mm | - | - | - |
| 1777972690 | 12.78° C | 74% | 1019.4 hPa | 0.51 mm | - | - | - |
| 1777971791 | 12.78° C | 75% | 1019.4 hPa | 0.76 mm | - | - | - |
| 1777970890 | 12.78° C | 73% | 1019.5 hPa | 1.02 mm | - | - | - |
| 1777969990 | 12.78° C | 73% | 1019.4 hPa | 1.52 mm | - | - | - |
| 1777969090 | 12.78° C | 72% | 1019.4 hPa | 1.27 mm | - | - | - |
| 1777968191 | 12.78° C | 71% | 1019.4 hPa | 1.02 mm | - | - | - |
| 1777967290 | 13.33° C | 69% | 1019.3 hPa | 0.76 mm | - | - | - |
| 1777966390 | 13.33° C | 69% | 1019.1 hPa | 0.51 mm | - | - | - |
| 1777965491 | 13.33° C | 68% | 1019.3 hPa | 0.51 mm | - | - | - |
| 1777964591 | 13.33° C | 67% | 1019.3 hPa | 0.25 mm | - | - | - |
| 1777963691 | 13.89° C | 66% | 1019 hPa | 0 mm | - | - | - |
| 1777962791 | 13.89° C | 65% | 1019 hPa | 0 mm | - | - | - |
| 1777961890 | 14.44° C | 65% | 1018.8 hPa | 0 mm | - | - | - |
| 1777960991 | 14.44° C | 64% | 1018.7 hPa | 0 mm | - | - | - |
| 1777960091 | 14.44° C | 63% | 1018.6 hPa | 0 mm | - | - | - |
| 1777959190 | 14.44° C | 62% | 1018.3 hPa | 0 mm | - | - | - |
| 1777958291 | 15° C | 59% | 1018.1 hPa | 0 mm | - | - | - |
| 1777957391 | 15° C | 58% | 1017.8 hPa | 0 mm | - | - | - |
| 1777956490 | 15° C | 57% | 1017.8 hPa | 0 mm | - | - | - |
* Rain latest hour (hover to see other rain measurements)
** Current wind speed in m/s (hover to see current wind gust speed)